Flag for Germany Weather past 2 weeks in Augsburg, Bavaria, Germany

Now
64 °F

Passing clouds.


Feels Like: 64 °F
Forecast: 49 / 70 °F
Wind: 6 mph from West

Location: Augsburg Airport

Current Time: May 28, 2015 at 8:19:50 PM

Latest Report: May 28, 2015 at 7:50 PM


Visibility: N/A

Pressure: 29.98 "Hg

Humidity: 43%

Dew point: 41 °F

Location of AugsburgLocation

Historic Weather in Augsburg — Graph

°F

Augsburg temperature yesterday

Maximum temperature yesterday: 57 °F (at 2:50 PM)
Minimum temperature yesterday: 45 °F (at 6:20 AM)
Average temperature yesterday: 53 °F

Past Weeks' High & Low Weather Summary

 TemperatureHumidityPressure
High75 °F (May 18, 4:50 PM)100% (May 15, 6:50 AM)30.30 "Hg (May 15, 6:50 AM)
Low39 °F (May 28, 6:20 AM)31% (May 28, 5:50 PM)29.74 "Hg (May 18, 6:50 PM)
Average57 °F65%30.05 "Hg
* Reported May 13 7:20 PM — May 28 7:20 PM, Augsburg, Weather by CustomWeather, © 2015

Note: Actual official high and low records may vary slightly from our data, if they occured in-between our weather recording intervals... More about our weather records

Advertising

Augsburg weather history for previous 24 hours

 ConditionsComfort  
Time TempWeatherWind HumidityBarometerVisibility
7:20 PM
Thu, May 28
68 °FSunny.8 mph35%29.98 "Hg10 mi
6:50 PM66 °FSunny.9 mph37%29.98 "Hg10 mi
6:20 PM68 °FSunny.10 mph33%29.98 "Hg10 mi
5:50 PM70 °FSunny.8 mph31%29.98 "Hg10 mi
5:20 PM70 °FPassing clouds.8 mph33%29.98 "HgN/A
4:50 PM68 °FPassing clouds.10 mph35%30.01 "HgN/A
4:20 PM68 °FPassing clouds.9 mph35%30.01 "HgN/A
3:50 PM68 °FPassing clouds.9 mph40%30.01 "HgN/A
3:20 PM66 °FPassing clouds.8 mph40%30.04 "HgN/A
2:50 PM66 °FPassing clouds.9 mph43%30.04 "HgN/A
2:20 PM64 °FPassing clouds.12 mph40%30.04 "HgN/A
1:50 PM64 °FSunny.10 mph40%30.04 "Hg10 mi
1:20 PM64 °FPassing clouds.8 mph43%30.07 "HgN/A
12:50 PM63 °FScattered clouds.7 mph49%30.07 "HgN/A
12:20 PM61 °FScattered clouds.8 mph52%30.09 "HgN/A
11:50 AM61 °FScattered clouds.7 mph52%30.09 "HgN/A
11:20 AM59 °FPassing clouds.5 mph51%30.09 "HgN/A
10:50 AM57 °FPassing clouds.6 mph55%30.09 "HgN/A
10:20 AM57 °FSunny.2 mph55%30.09 "Hg10 mi
9:50 AM55 °FSunny.5 mph59%30.12 "Hg10 mi
9:20 AM54 °FPassing clouds.6 mph63%30.12 "HgN/A
8:50 AM52 °FPassing clouds.3 mph67%30.12 "HgN/A
8:20 AM48 °FPassing clouds.3 mph76%30.12 "HgN/A
7:50 AM46 °FSunny.6 mph82%30.12 "Hg10 mi
7:20 AM45 °FSunny.5 mph93%30.12 "Hg10 mi
6:50 AM43 °FSunny.5 mph100%30.12 "Hg10 mi
6:20 AM39 °FClear.3 mph100%30.12 "Hg10 mi
8:50 PM
Wed, May 27
50 °FSunny.6 mph67%30.18 "Hg10 mi
8:20 PM54 °FSunny.8 mph54%30.18 "Hg10 mi
Weather by CustomWeather, © 2015

See weather overviewHow to use our weather pages